Torna al catalogo

DELTA 1 DEB

AttivoUNKNOWN
NORAD 19008·DEBRIS·🇺🇸 United States

Lanciato Aug 16, 1984 da Cape Canaveral Space Force Station

Loading…

Prossimi Passaggi (prossime 24 ore)

TLE

AggiornatoSource: Space-Track

Epoca: Sep 14, 2026, 02:27 UTC

1 19008U 84088G   26257.10208503  .00001413  00000-0  79547-3 0  9991
2 19008  28.7333 183.1999 1783758 352.2329   5.3694 11.22326291579424

Traccia DELTA 1 DEB in tempo reale con AllMySat

Download on the App Store